User: anonymous   Login
Location: Hopkins Observatory
(42.6965°N, 73.1843°W)
Time: 15:22:35
(UTC-04:00)
Language:

UOSAT-12 - Orbit

View from above orbital plane
View from above orbital plane
View from above satellite
View from above satellite

Ground track
Ground track

The orbit data is extracted from the following two-line orbital elements,

1 25693U 99021A   16181.90414160 -.00000088 +00000-0 +69944-5 0  9992
2 25693 064.5558 131.3449 0005574 227.9095 132.1536 14.80659979927737
Epoch (UTC): 29 June 2016 21:41:57
Eccentricity: 0.0005574
inclination: 64.5558°
perigee height: 623 km
apogee height: 631 km
right ascension of ascending node: 131.3449°
argument of perigee: 227.9095°
revolutions per day: 14.80659979
mean anomaly at epoch: 132.1536°
orbit number at epoch: 92773

The dashed part of the orbit path shows where the satellite is in the earth's shadow,  

DLR